Calgary Springbank, Alberta

7:30 PM MDT on March 29, 2017 (GMT -0600)
Springbank

Weather History for CYBW - February, 2013

Change the Weather History Date:

Tuesday, February 5, 2013

  Actual Average Record
Temperature  
Mean Temperature 26 °F -  
Max Temperature 42 °F 30 °F 51 °F (2007)
Min Temperature 9 °F 9 °F -27 °F (2014)
Degree Days  
Heating Degree Days 40    
Moisture  
Dew Point 18 °F    
Average Humidity 69    
Maximum Humidity 93    
Minimum Humidity 41    
Precipitation  
Precipitation 0.00 in - - ()
Sea Level Pressure  
Sea Level Pressure 29.76 in    
Wind  
Wind Speed 5 mph ()    
Max Wind Speed 20 mph    
Max Gust Speed -    
Visibility 15.0 miles    
Events      
Averages and records for this station are not official NWS values.
T = Trace of Precipitation, MM = Missing Value Source: Averaged Metar Reports

Daily Weather History Graph

Daily Weather History Graph

Search for Another Location

Airport or City:

Trip Planner

Search our weather history database for the weather conditions in past years. The results will help you decide how hot, cold, wet, or windy it might be!

Date:

Astronomy

Feb. 05, 2013 Rise Set
Actual Time 8:07 AM MST 5:36 PM MST
Civil Twilight 7:32 AM MST 6:11 PM MST
Nautical Twilight 6:52 AM MST 6:51 PM MST
Astronomical Twilight 6:14 AM MST 7:29 PM MST
Moon 4:06 AM MST (2/5) 12:44 PM MST (2/5)
Length of Visible Light 10h 39m
Length of Day
9h 28m
Waning Crescent, 26% of the Moon is Illuminated
Feb 5
Waning Crescent
Feb 10
New
Feb 17
First Quarter
Feb 25
Full
Mar 4
Last Quarter

Hourly Weather History & Observations

Time (MST) Temp. Windchill Dew Point Humidity Pressure Visibility Wind Dir Wind Speed Gust Speed Precip Events Conditions
5:00 AM 15 °F - 11 °F 79% 29.93 in 15 mi Calm Calm - -   Scattered Clouds
5:00 AM 14.0 °F - 12.2 °F 93% 29.93 in 15.0 mi Calm Calm - N/A   Partly Cloudy
6:00 AM 14.0 °F - 12.2 °F 93% 29.93 in 15.0 mi Calm Calm - N/A   Partly Cloudy
7:00 AM 15.8 °F - 14.0 °F 93% 29.90 in 15.0 mi Calm Calm - N/A   Scattered Clouds
8:00 AM 10.4 °F 0.8 °F 8.6 °F 92% 29.89 in 30.0 mi WNW 5.8 mph - N/A   Overcast
9:00 AM 14.0 °F 8.2 °F 10.4 °F 86% 29.86 in 30.0 mi North 3.5 mph - N/A   Mostly Cloudy
10:00 AM 17.6 °F 12.3 °F 15.8 °F 93% 29.84 in 30.0 mi North 3.5 mph - N/A   Mostly Cloudy
11:00 AM 24 °F - 20 °F 81% 29.79 in 28 mi NW 2.3 mph - -   Partly Cloudy
11:00 AM 24.8 °F - 21.2 °F 86% 29.79 in 30.0 mi West 2.3 mph - N/A   Scattered Clouds
12:00 PM 30.2 °F - 17.6 °F 60% 29.74 in 30.0 mi Variable 2.3 mph - N/A   Partly Cloudy
1:00 PM 33.8 °F 28.6 °F 21.2 °F 60% 29.70 in 30.0 mi ENE 5.8 mph - N/A   Partly Cloudy
2:00 PM 37.4 °F 33.8 °F 23.0 °F 56% 29.67 in 30.0 mi South 4.6 mph - N/A   Scattered Clouds
3:00 PM 39.2 °F - 24.8 °F 56% 29.65 in 30.0 mi Calm Calm - N/A   Scattered Clouds
3:43 PM 42.8 °F 34.8 °F 23.0 °F 46% 29.63 in 30.0 mi West 17.3 mph - N/A   Partly Cloudy
4:00 PM 42.8 °F 34.3 °F 21.2 °F 42% 29.64 in 30.0 mi West 19.6 mph - N/A   Partly Cloudy
5:00 PM 36 °F - 21 °F 41% 29.66 in 28 mi West 13.8 mph - -   Partly Cloudy
5:00 PM 35.6 °F 27.1 °F 21.2 °F 56% 29.66 in 30.0 mi West 12.7 mph - N/A   Scattered Clouds
5:09 PM 35.6 °F 27.1 °F 21.2 °F 56% 29.67 in 30.0 mi West 12.7 mph - N/A   Scattered Clouds
6:00 PM 30.2 °F 20.2 °F 19.4 °F 64% 29.70 in 25.0 mi West 12.7 mph - N/A   Scattered Clouds
7:00 PM 30.2 °F 19.8 °F 19.4 °F 64% 29.70 in 15.0 mi West 13.8 mph - N/A   Scattered Clouds
8:00 PM 32.0 °F 21.6 °F 19.4 °F 60% 29.72 in 15.0 mi West 15.0 mph - N/A   Scattered Clouds
9:00 PM 28.4 °F 18.0 °F 19.4 °F 69% 29.73 in 15.0 mi WSW 12.7 mph - N/A   Partly Cloudy
10:00 PM 28.4 °F 17.0 °F 19.4 °F 69% 29.73 in 15.0 mi WSW 15.0 mph - N/A   Partly Cloudy